Location: Roc des P�zouls
(43.9667°N, 3.5500°E)
Time: 05:23:06
(UTC+00:00)

ALOS - Pass Details

Date: 14 November 2019
Orbit: 683 x 685 km, 97.8° (Epoch: 15 December)

Event Time Altitude Azimuth Distance (km) Brightness Sun altitude
Rises 04:44:55 0° 19° (NNE) 3,058 5.8 -20.5°
Reaches altitude 10° 04:47:16 10° 26° (NNE) 2,137 5.0 -20.1°
Maximum altitude 04:51:44 43° 98° (E) 954 3.5 -19.3°
Drops below altitude 10° 04:56:10 10° 170° (S) 2,122 5.0 -18.5°
Sets 04:58:29 0° 177° (S) 3,033 5.7 -18.1°
